CDT,Max TemperatureF,Mean TemperatureF,Min TemperatureF,Max Dew PointF,MeanDew PointF,Min DewpointF,Max Humidity, Mean Humidity, Min Humidity, Max Sea Level PressureIn, Mean Sea Level PressureIn, Min Sea Level PressureIn, Max VisibilityMiles, Mean VisibilityMiles, Min VisibilityMiles, Max Wind SpeedMPH, Mean Wind SpeedMPH, Max Gust SpeedMPH,PrecipitationIn, CloudCover, Events, WindDirDegrees
2011-10-1,64,53,42,37,31,14,76,51,15,30.36,30.29,30.19,10,10,10,8,4,,0.00,0,,37
2011-10-2,69,52,35,41,31,16,87,53,13,30.32,30.26,30.18,10,10,5,7,1,,0.00,0,,200
2011-10-3,77,58,39,43,27,-11,81,47,4,30.27,30.22,30.18,10,10,10,7,1,,0.00,0,,78
2011-10-4,80,61,42,43,31,12,82,44,8,30.29,30.23,30.16,10,10,10,12,2,,0.00,0,,173
2011-10-5,82,66,51,45,37,25,71,39,12,30.23,30.18,30.12,10,10,10,12,4,17,0.00,0,,169
2011-10-6,82,66,50,48,43,36,76,46,19,30.20,30.14,30.09,10,10,10,15,6,21,0.00,0,,147
2011-10-7,84,72,59,52,44,27,72,37,12,30.22,30.16,30.11,10,10,10,20,11,28,0.00,0,,168
2011-10-8,84,70,57,52,47,36,77,47,18,30.26,30.20,30.17,10,10,10,15,8,22,0.00,0,,159
2011-10-9,80,68,55,54,48,43,82,53,26,30.29,30.23,30.16,10,10,7,15,6,22,0.00,0,,136
2011-10-10,78,63,48,54,49,43,82,58,36,30.16,30.08,30.00,10,10,10,10,4,,0.00,2,,149
2011-10-11,77,68,60,61,57,54,82,69,50,30.00,29.95,29.86,10,10,5,10,2,,0.03,6,Rain,136
2011-10-12,71,64,57,61,55,52,83,77,64,29.85,29.74,29.63,10,10,5,10,3,16,0.58,4,Rain,177
2011-10-13,71,63,55,52,48,36,88,63,30,29.68,29.64,29.62,10,9,5,21,10,31,0.01,4,,294
2011-10-14,64,55,46,41,35,28,76,49,27,29.87,29.78,29.71,10,10,10,26,12,34,0.00,1,,280
2011-10-15,68,54,39,37,31,19,81,47,16,30.05,29.97,29.89,10,10,10,18,9,24,0.00,0,,265
2011-10-16,64,58,53,45,38,27,67,50,27,29.97,29.87,29.77,10,10,10,16,5,25,0.00,0,,277
2011-10-17,53,45,37,39,33,28,81,60,38,30.02,29.98,29.93,10,10,10,14,3,18,0.00,3,Rain,284
2011-10-18,51,46,41,37,33,30,81,62,44,29.93,29.89,29.86,10,10,10,16,4,22,0.00,3,,330
2011-10-19,48,44,41,36,32,27,81,61,43,29.89,29.86,29.83,10,10,10,18,9,30,0.01,8,Rain,344
2011-10-20,53,45,37,32,30,28,75,58,38,29.98,29.86,29.81,10,10,10,20,13,29,0.00,2,,307
2011-10-21,60,45,30,30,25,18,80,49,19,30.15,30.09,30.01,10,10,7,13,5,16,0.00,0,,264
2011-10-22,71,56,41,37,34,28,76,48,20,30.08,30.05,30.03,10,10,7,8,4,,0.00,0,,255
2011-10-23,73,58,44,43,39,32,82,52,22,30.02,29.96,29.89,10,10,10,14,4,18,0.00,3,Rain,221
2011-10-24,71,58,44,43,38,32,76,52,23,30.16,30.07,29.95,10,10,10,12,6,16,0.00,0,,218
2011-10-25,80,70,59,57,46,34,60,45,32,30.01,29.83,29.69,10,10,10,24,13,34,0.00,2,Rain,202
2011-10-26,62,55,48,48,41,37,82,71,59,30.02,29.94,29.80,10,9,5,15,10,23,0.00,7,,344
2011-10-27,57,48,39,37,30,14,81,54,20,30.12,30.06,30.01,10,10,10,14,4,20,0.00,4,,328
2011-10-28,60,44,28,30,20,5,80,49,11,30.19,30.14,30.04,10,10,7,21,3,31,0.00,3,,248
2011-10-29,60,45,30,23,13,-8,64,35,6,30.16,30.09,30.03,10,10,10,12,4,17,0.00,0,,229
2011-10-30,60,51,39,41,31,16,76,49,27,30.01,29.97,29.91,10,10,10,17,10,25,0.06,3,Rain,213
2011-10-31,55,42,30,30,26,19,80,52,25,30.13,30.07,30.00,10,10,10,8,5,10,0.00,0,,266